EW6300 Weather Reports


Display with metric or nautical units.
time (UTC)temp
F
wind
direction
speed
MPH
gust
MPH
rain 1hr
in
rain 24hr
in
rain mn
in
humidity
%
barometer
mb
20260505070042 36 207 0.0 0.0 0.00 0.29 0.00 73 1013.8
20260505070040 37 207 0.0 0.0 0.00 0.28 0.00 70 1004.3
20260505064601 36 0 0.0 2.0 0.00 0.29 0.00 71 1013.7
20260505064534 38 207 0.0 0.0 0.00 0.28 0.00 70 1004.2
20260505063037 36 0 0.0 0.0 0.00 0.29 0.00 72 1013.9
20260505061542 36 0 0.0 0.0 0.00 0.29 0.00 68 1013.6
20260505061530 38 207 0.0 0.0 0.00 0.28 0.00 67 1004.1
20260505060048 38 207 0.0 0.0 0.00 0.28 0.00 66 1004.1
20260505060042 36 0 0.0 0.0 0.00 0.29 0.00 71 1013.6
20260505054549 37 0 0.0 0.0 0.00 0.29 0.29 70 1013.8
20260505054523 38 207 0.0 0.0 0.00 0.28 0.28 65 1004.1
20260505053041 37 0 0.0 0.0 0.00 0.29 0.29 68 1013.8
20260505053023 39 207 0.0 0.0 0.00 0.28 0.28 65 1004.4
20260505051541 38 0 0.0 0.0 0.00 0.29 0.29 65 1013.8
20260505051523 39 207 0.0 0.0 0.00 0.28 0.28 63 1004.4
20260505041542 39 327 0.0 2.0 0.00 0.29 0.29 57 1014.4
20260505041521 41 207 0.0 0.0 0.00 0.28 0.28 54 1005.0
20260505040040 40 0 0.0 1.0 0.00 0.29 0.29 51 1014.3
20260505040023 42 207 0.0 0.0 0.00 0.28 0.28 54 1004.9
20260505034543 40 0 0.0 0.0 0.00 0.29 0.29 57 1014.0
20260505034519 42 207 0.0 0.0 0.00 0.28 0.28 53 1004.6
20260505033043 41 0 0.0 0.0 0.00 0.29 0.29 53 1014.1
20260505033019 43 207 0.0 0.0 0.00 0.28 0.28 51 1004.6
20260505031542 42 0 0.0 0.0 0.00 0.29 0.29 52 1014.1
20260505031519 44 207 0.0 0.0 0.00 0.28 0.28 50 1004.6
20260505030046 44 0 0.0 2.0 0.00 0.29 0.29 42 1013.6
20260505030017 45 207 0.0 0.0 0.00 0.28 0.28 46 1004.0
20260505024537 44 0 0.0 2.0 0.00 0.29 0.29 50 1013.7
20260505024518 46 207 0.0 0.0 0.00 0.28 0.28 43 1004.2
20260505023044 44 112 2.0 5.0 0.00 0.29 0.29 40 1013.6
20260505023017 49 206 0.0 0.0 0.00 0.28 0.28 40 1004.0
20260505021537 46 0 0.0 0.0 0.00 0.29 0.29 45 1013.5
20260505021516 50 173 0.0 2.0 0.00 0.28 0.28 30 1004.0
20260505020054 48 0 0.0 0.0 0.00 0.29 0.29 39 1013.4
20260505020015 50 183 1.0 7.0 0.00 0.28 0.28 29 1003.8
20260505014543 49 0 0.0 0.0 0.00 0.29 0.29 38 1013.3
20260505014530 51 228 0.0 2.0 0.00 0.28 0.28 30 1003.6
20260505013042 50 0 0.0 2.0 0.00 0.29 0.29 32 1013.0
20260505013014 52 229 0.0 3.0 0.00 0.28 0.28 29 1003.3
20260505011540 51 0 0.0 9.0 0.00 0.29 0.29 27 1013.1
20260505011515 52 202 0.0 1.0 0.00 0.28 0.28 29 1003.4
20260505010040 52 309 3.0 7.0 0.00 0.29 0.29 28 1012.9
20260505010014 53 178 0.0 2.0 0.00 0.28 0.28 29 1003.1
20260505004559 52 0 0.0 4.0 0.00 0.29 0.29 31 1013.1
20260505004513 53 218 0.0 2.0 0.00 0.28 0.28 29 1003.1
20260505003042 53 312 2.0 4.0 0.00 0.29 0.29 31 1013.1
20260505003012 54 205 0.0 1.0 0.00 0.28 0.28 30 1003.1
20260505001542 53 355 1.0 6.0 0.00 0.29 0.29 30 1012.9
20260505001513 54 186 0.0 1.0 0.00 0.28 0.28 30 1003.0
20260505000038 54 127 0.0 4.0 0.00 0.29 0.29 31 1013.1
20260505000012 54 151 0.0 1.0 0.00 0.28 0.28 31 1003.1
20260504234547 53 346 1.0 7.0 0.00 0.29 0.29 30 1013.2
20260504234510 54 195 0.0 3.0 0.00 0.28 0.28 31 1003.1
20260504233041 53 144 3.0 7.0 0.00 0.29 0.29 30 1013.0
20260504233013 54 143 0.0 3.0 0.00 0.28 0.28 31 1002.8
20260504231554 54 314 4.0 11.0 0.00 0.29 0.29 30 1013.0
20260504231509 54 200 0.0 2.0 0.00 0.28 0.28 30 1002.7
20260504230041 54 301 3.0 8.0 0.00 0.29 0.29 30 1012.9
20260504230009 54 211 2.0 10.0 0.00 0.28 0.28 31 1002.6
20260504224541 55 138 1.0 6.0 0.00 0.29 0.29 32 1012.9
20260504224516 54 190 0.0 11.0 0.00 0.28 0.28 32 1002.6
20260504223046 55 141 1.0 12.0 0.00 0.29 0.29 31 1013.1
20260504223007 55 175 0.0 9.0 0.00 0.28 0.28 31 1002.7
20260504221605 54 124 4.0 17.0 0.00 0.29 0.29 32 1012.9
20260504221506 55 223 1.0 6.0 0.00 0.28 0.28 32 1002.7
20260504220040 55 143 3.0 16.0 0.00 0.29 0.29 31 1013.1
20260504220006 55 175 2.0 9.0 0.00 0.28 0.28 32 1002.9
20260504214540 55 64 5.0 8.0 0.00 0.29 0.29 31 1013.2
20260504214504 55 221 0.0 8.0 0.01 0.28 0.28 33 1003.0
20260504213040 55 191 5.0 18.0 0.00 0.29 0.29 33 1013.4
20260504213008 55 150 1.0 3.0 0.01 0.28 0.28 35 1003.1
20260504211541 55 317 3.0 10.0 0.00 0.29 0.29 33 1013.5
20260504211501 55 172 2.0 10.0 0.01 0.28 0.28 33 1003.3
20260504210058 54 184 0.0 3.0 0.02 0.28 0.28 35 1003.6
20260504210047 54 152 5.0 11.0 0.00 0.29 0.29 33 1013.8
20260504204603 54 180 2.0 10.0 0.02 0.27 0.27 34 1003.7
20260504204540 54 311 3.0 13.0 0.00 0.29 0.29 31 1014.0
20260504203107 54 200 0.0 4.0 0.02 0.27 0.27 35 1003.9
20260504203037 55 356 4.0 17.0 0.00 0.29 0.29 31 1013.9
20260504201608 54 120 0.0 13.0 0.04 0.27 0.27 35 1004.0
20260504201534 55 114 5.0 12.0 0.00 0.29 0.29 30 1014.1
20260504200055 53 221 4.0 13.0 0.03 0.26 0.26 34 1004.1
20260504200041 54 27 5.0 19.0 0.00 0.29 0.29 32 1014.2
20260504194556 53 229 0.0 13.0 0.03 0.25 0.25 35 1004.1
20260504194549 54 86 3.0 10.0 0.00 0.29 0.29 32 1014.3
20260504193102 53 217 1.0 8.0 0.03 0.24 0.24 37 1004.0
20260504193046 54 19 2.0 9.0 0.00 0.29 0.29 37 1014.3
20260504191607 53 209 1.0 9.0 0.03 0.23 0.23 35 1004.2
20260504191604 53 41 3.0 10.0 0.00 0.29 0.29 33 1014.5
20260504190104 53 161 0.0 3.0 0.04 0.23 0.23 43 1004.2
20260504190039 54 9 5.0 14.0 0.00 0.29 0.29 39 1014.7
20260504184551 53 259 0.0 16.0 0.04 0.22 0.22 40 1004.4
20260504183044 52 134 0.0 5.0 0.03 0.21 0.21 52 1004.4
20260504183040 52 340 1.0 7.0 0.00 0.29 0.29 45 1015.1
20260504181541 50 282 2.0 4.0 0.00 0.29 0.29 57 1015.7
20260504180039 51 48 0.0 2.0 0.02 0.19 0.19 60 1005.1
20260504180037 49 283 2.0 8.0 0.00 0.29 0.29 67 1015.8
20260504174540 51 9 0.0 7.0 0.02 0.18 0.18 61 1005.6
20260504174535 48 20 5.0 9.0 0.00 0.29 0.29 65 1016.0
20260504173043 48 139 5.0 10.0 0.00 0.29 0.29 60 1016.1
20260504173033 49 22 5.0 11.0 0.02 0.18 0.18 65 1005.8
20260504171543 46 160 5.0 12.0 0.00 0.29 0.29 62 1016.4
20260504171529 47 5 1.0 7.0 0.02 0.17 0.17 64 1006.1
20260504081538 38 0 0.0 0.0 0.00 0.00 0.00 85 1018.4
20260504081525 39 254 0.0 0.0 0.02 0.02 0.02 82 1008.5